Regional Weather Roundup
Issued by NWS Jackson, KY

Home | Current Version | Previous Version | Text Only | Print | Product List | Glossary Off
Versions: 1 2 3 4 5 6 7 8 9 10 11 12 13 14 15 16 17 18 19 20 21 22 23 24 25 26 27 28 29 30 31 32 33 34 35 36 37 38 39 40 41 42 43 44 45 46 47 48 49 50

000
ASUS43 KJKL 030510
RWRJKL

EAST KENTUCKY HOURLY WEATHER ROUNDUP
NATIONAL WEATHER SERVICE JACKSON KY
100 AM EDT MON AUG 03 2015

NOTE: "FAIR" INDICATES FEW OR NO CLOUDS BELOW 12,000 FEET WITH
NO SIGNIFICANT WEATHER AND/OR OBSTRUCTIONS TO VISIBILITY.

* THESE REPORTS ARE NOT UNDER NWS QUALITY CONTROL AND MAY NOT
  REPORT WEATHER SUCH AS PRECIPITATION AND FOG.

KYZ079-080-083-085-087-088-110-112-115-119-120-030600
...EASTERN KENTUCKY...

CITY           SKY/WX    TMP DP  RH WIND       PRES   REMARKS
JACKSON        CLEAR     71  58  63 S3        29.96S
LONDON         CLEAR     67  61  81 CALM      29.95F
SOMERSET*      CLEAR     63  63 100 CALM      29.96S
MONTICELLO*    CLEAR     62  62 100 CALM      29.98S
WILLIAMSBURG*  CLEAR     64  64 100 CALM      29.96S
MIDDLESBORO*   CLEAR     63  62  96 CALM      29.98S
HAZARD APT*    CLEAR     64  64 100 CALM      29.96S
BLACK MTN*       N/A     66  54  63 SW6         N/A
PIKEVILLE APT* CLEAR     68  63  83 S3        29.96S
BIG SANDY*     CLEAR     68  64  84 CALM      29.95F
MOREHEAD APT*  CLEAR     66  64  94 S6        29.95S
$$

KYZ035-036-041-042-044-050-067-078-099-030600
...CENTRAL KENTUCKY...

CITY           SKY/WX    TMP DP  RH WIND       PRES   REMARKS
MT STERLING*   CLEAR     63  63 100 SW5       29.95S
FLEMING/MASON* CLEAR     68  64  88 S6        29.92F
DANVILLE*      CLEAR     64  61  88 CALM      29.95S
RICHMOND*      CLEAR     64  63  94 CALM      29.93F
LEXINGTON      CLEAR     67  61  81 S5        29.93F
FRANKFORT      CLEAR     67  61  81 SW5       29.91S
$$

KYZ091>093-OHZ055-061-077-WVZ005-015-034-035-042-030600
...SOUTHERN OHIO/WEST VIRGINIA...

CITY           SKY/WX    TMP DP  RH WIND       PRES   REMARKS
COVINGTON      CLEAR     70  62  76 S7        29.88F
COLUMBUS       PTCLDY    73  61  65 S10       29.85F
DAYTON         CLEAR     73  61  65 SW12      29.87S
WILMINGTON     CLEAR     67  60  78 S7        29.88F
HUNTINGTON     CLEAR     65  63  93 CALM      29.91F
CHARLESTON     CLEAR     66  63  90 CALM      29.92F
PINEVILLE*     PTCLDY    61  61 100 MISG      30.04S
BECKLEY        CLEAR     64  52  64 SE7       30.02F
BLUEFIELD      PTCLDY    70  53  54 S3        30.06R
$$

VAZ002-007-008-TNZ017-027-036-066-071-030600
...SOUTHWEST VIRGINIA/EAST TENNESSEE...

CITY           SKY/WX    TMP DP  RH WIND       PRES   REMARKS
WISE*          MOCLDY    68  54  60 CALM      30.04S
ABINGDON*      CLOUDY    70  59  68 CALM      30.01R
BRISTOL        CLOUDY    67  61  81 CALM      29.97R
OAK RIDGE      CLEAR     69  63  81 CALM      29.95S
CROSSVILLE     CLEAR     65  61  87 CALM      30.00S
NASHVILLE      CLEAR     72  64  76 CALM      29.93S
$$

...KEY TO REMARKS...
VSB - VISIBILITY IN MILES
WCI - WIND CHILL INDEX
HX  - HEAT INDEX

$$


USA.gov is the U.S. government's official web portal to all federal, state and local government web resources and services.